Date,TemperatureHighF,TemperatureAvgF,TemperatureLowF,DewpointHighF,DewpointAvgF,DewpointLowF,HumidityHigh,HumidityAvg,HumidityLow,PressureMaxIn,PressureMinIn,WindSpeedMaxMPH,WindSpeedAvgMPH,GustSpeedMaxMPH,PrecipitationSumIn
2013-1-1,20.2,12.0,1.9,12.7,6.9,-2.1,86,80,70,30.40,30.20,11,3,13,0.00
2013-1-2,34.2,23.1,12.3,29.3,19.1,8.1,88,85,81,30.29,30.13,12,2,13,0.01
2013-1-3,29.2,23.0,15.7,26.0,18.4,11.7,88,82,73,30.47,30.28,15,4,18,0.00
2013-1-4,34.0,21.3,13.8,22.6,15.8,10.6,89,80,62,30.37,30.19,9,4,11,0.00
2013-1-5,29.0,22.8,15.6,23.6,17.9,11.4,90,81,73,30.28,30.05,22,4,28,0.00
2013-1-6,33.2,22.9,12.2,24.7,17.8,8.8,87,81,69,30.39,30.18,18,2,22,0.00
2013-1-7,37.3,31.6,24.0,29.6,25.3,21.0,90,78,70,30.18,29.98,13,2,15,0.00
2013-1-8,38.4,30.6,23.1,31.6,26.7,20.8,92,86,75,30.17,29.88,11,3,12,0.00
2013-1-9,44.4,34.3,26.2,33.4,28.6,22.3,92,80,64,30.48,30.17,13,1,14,0.00
2013-1-10,38.0,36.0,33.0,35.0,30.9,25.6,95,82,66,30.36,29.70,12,3,15,0.12
2013-1-11,50.2,33.9,0.0,47.8,31.7,0.0,97,81,78,29.93,29.55,20,3,25,0.01
2013-1-12,25.9,18.1,9.9,19.8,10.1,3.4,78,71,60,30.21,29.93,16,6,20,0.00
2013-1-13,22.5,12.5,5.6,9.1,4.8,0.8,81,71,54,30.43,30.19,16,4,21,0.00
2013-1-14,28.5,16.9,7.7,15.1,9.1,3.3,83,72,52,30.55,30.42,9,2,9,0.00
2013-1-15,34.4,23.8,11.7,21.9,15.1,7.2,84,70,54,30.43,30.09,11,4,12,0.00
2013-1-16,51.8,35.0,22.0,36.3,27.0,16.8,85,73,54,30.27,29.95,14,5,16,0.00
2013-1-17,31.8,27.7,23.9,30.3,25.8,21.5,94,92,85,30.50,30.27,9,1,12,0.00
2013-1-18,49.7,39.2,28.9,35.7,31.1,27.1,94,73,57,30.33,29.90,19,5,19,0.00
2013-1-19,53.3,38.6,21.0,35.0,28.4,12.4,83,68,49,30.37,29.87,25,8,28,0.00
2013-1-20,20.9,16.1,11.8,11.8,8.3,5.8,82,71,56,30.49,30.34,14,4,17,0.00
2013-1-21,14.3,10.4,4.9,9.8,-0.2,-5.3,82,62,51,30.55,30.45,18,4,20,0.00
2013-1-22,19.7,13.1,9.9,12.4,7.3,0.1,84,77,61,30.48,30.33,7,2,8,0.00
2013-1-23,28.9,18.0,8.8,20.6,11.3,1.2,85,75,65,30.58,30.24,19,5,24,0.00
2013-1-24,18.2,10.1,1.7,7.3,-0.1,-6.5,72,63,53,30.63,30.27,14,4,14,0.00
2013-1-25,49.2,28.7,13.9,30.5,18.4,6.2,81,66,47,30.30,30.19,10,2,15,0.00
2013-1-26,48.5,30.8,16.3,29.4,21.4,11.2,84,69,47,30.29,30.04,16,6,17,0.00
2013-1-27,40.9,37.6,34.2,39.6,34.9,25.5,96,90,63,30.04,29.70,15,3,16,0.17
2013-1-28,37.3,16.2,0.0,36.3,15.8,0.0,96,42,96,30.01,29.79,9,2,11,0.01
2013-1-29,35.0,29.2,0.0,34.2,25.0,0.0,97,76,87,30.09,29.59,23,6,23,0.00
2013-1-30,30.2,21.2,12.5,28.4,17.7,8.6,94,86,75,30.00,29.65,25,9,33,0.01
2013-1-31,14.4,6.6,-1.8,9.9,-0.6,-7.6,82,72,61,30.53,29.99,25,6,30,0.00
2013-2-1,26.7,13.4,-4.0,20.0,6.8,-9.1,81,75,69,30.54,30.15,11,3,14,0.00
2013-2-2,37.6,29.4,23.2,32.6,24.3,19.1,89,81,73,30.26,30.09,18,2,21,0.01
2013-2-3,42.4,33.1,20.7,31.4,24.8,15.2,83,72,59,30.26,29.81,20,4,26,0.00
2013-2-4,35.9,26.9,21.9,29.6,22.7,19.1,89,84,77,30.05,29.79,19,4,27,0.00
2013-2-5,51.3,37.6,25.0,35.7,28.7,22.6,91,72,48,30.09,29.87,19,4,22,0.00
2013-2-6,54.9,41.0,31.7,40.9,32.9,26.0,83,73,56,30.10,29.84,8,2,13,0.00
2013-2-7,39.6,32.8,28.4,34.9,28.7,23.0,95,85,80,30.28,29.89,23,8,26,0.00
2013-2-8,31.5,27.6,24.3,26.6,24.0,21.5,91,86,80,30.38,30.18,11,4,14,0.00
2013-2-9,48.2,36.8,27.5,38.8,31.8,25.0,92,82,68,30.20,29.69,18,7,20,0.00
2013-2-10,44.3,36.2,29.4,41.5,32.3,22.9,96,86,76,29.83,29.27,27,8,29,0.03
2013-2-11,37.3,29.7,23.1,26.7,22.9,19.8,88,76,64,30.20,29.83,24,6,34,0.00
2013-2-12,48.2,32.6,19.7,29.0,23.0,17.0,91,70,42,30.19,29.93,12,2,14,0.00
2013-2-13,53.5,37.4,23.9,33.7,27.2,20.2,88,69,43,29.94,29.75,10,2,12,0.00
2013-2-14,45.2,35.6,19.9,32.7,27.2,14.0,92,72,47,30.31,29.81,23,6,26,0.00
2013-2-15,33.6,22.0,12.2,23.9,16.0,8.5,91,78,55,30.41,30.31,12,2,18,0.02
2013-2-16,32.3,22.6,9.1,25.2,18.2,6.0,90,83,73,30.40,30.06,10,2,10,0.03
2013-2-17,53.0,37.3,22.7,38.5,28.6,18.6,86,72,56,30.06,29.57,13,5,16,0.00
2013-2-18,43.2,31.4,20.5,33.7,25.0,15.2,90,77,64,30.10,29.55,31,10,36,0.02
2013-2-19,28.1,16.5,8.4,16.7,5.6,0.9,79,63,40,30.45,30.10,23,8,30,0.00
2013-2-20,23.9,14.8,4.7,9.2,4.0,-2.0,76,62,50,30.47,30.28,10,4,13,0.00
2013-2-21,23.6,21.1,20.0,19.3,14.6,8.4,91,77,57,30.33,29.89,14,6,18,0.00
2013-2-22,24.0,17.9,9.9,21.2,15.2,6.8,91,89,86,30.10,29.90,13,4,14,0.11
2013-2-23,34.2,21.0,5.9,32.9,18.3,2.6,95,89,84,30.08,29.89,7,2,9,0.01
2013-2-24,40.1,30.1,19.7,29.2,24.7,17.0,90,81,63,30.11,29.95,9,1,9,0.00
2013-2-25,34.2,28.5,25.3,29.0,24.9,22.5,92,86,76,30.12,29.95,15,5,16,0.00
2013-2-26,31.1,27.2,24.0,28.0,24.8,22.3,94,90,86,29.96,29.82,18,8,19,0.00
2013-2-27,37.2,29.6,23.3,26.9,23.7,19.2,89,79,63,30.14,29.94,26,10,32,0.00
2013-2-28,34.2,27.0,24.1,26.4,22.3,19.5,92,82,71,30.28,30.14,23,10,29,0.00
2013-3-1,28.1,24.6,22.1,21.5,18.7,15.7,85,78,68,30.42,30.27,18,8,19,0.00
2013-3-2,35.1,26.4,15.8,24.1,19.0,12.1,86,74,57,30.41,30.14,9,2,10,0.00
2013-3-3,39.0,31.8,25.0,31.1,26.1,21.7,87,79,71,30.15,29.73,16,6,19,0.00
2013-3-4,43.4,34.1,28.2,33.7,28.1,22.8,90,79,66,30.06,29.68,18,6,20,0.00
2013-3-5,32.0,26.9,22.5,23.0,19.3,15.9,78,73,65,30.45,30.05,29,12,34,0.00
2013-3-6,37.1,27.8,19.7,23.8,19.9,15.1,83,73,56,30.49,30.29,12,4,17,0.00
2013-3-7,49.2,33.8,22.6,31.9,25.3,18.5,85,72,49,30.32,30.13,21,7,21,0.00
2013-3-8,53.7,40.4,28.4,40.1,32.6,24.4,90,74,57,30.21,29.91,18,6,22,0.22
2013-3-9,53.9,44.8,34.6,50.7,42.3,32.2,98,91,84,29.92,29.51,27,5,28,0.13
2013-3-10,34.5,27.2,21.8,32.0,25.5,19.8,94,93,91,30.00,29.67,28,14,37,0.08
2013-3-11,31.4,23.7,18.9,27.1,20.5,16.7,92,88,80,30.06,29.93,21,6,25,0.16
2013-3-12,33.3,27.1,20.9,27.1,21.9,17.4,90,81,72,30.39,30.06,22,6,24,0.01
2013-3-13,34.5,26.1,15.0,23.8,19.0,12.1,89,75,57,30.50,30.29,8,2,10,0.00
2013-3-14,58.7,42.3,31.1,42.4,33.2,23.1,86,71,53,30.29,30.07,11,2,13,0.00
2013-3-15,59.5,46.1,36.0,46.7,39.2,33.1,90,78,59,30.08,29.71,13,3,14,0.00
2013-3-16,38.5,31.4,27.1,36.1,26.6,22.7,91,82,73,30.22,29.85,23,8,28,0.00
2013-3-17,43.4,32.6,23.0,32.9,25.5,18.6,92,75,59,30.18,29.77,15,5,20,0.01
2013-3-18,39.2,33.3,25.7,32.6,24.1,16.4,94,71,45,30.08,29.75,25,6,29,0.07
2013-3-19,53.9,32.3,19.0,30.3,19.6,12.8,78,61,34,30.37,30.08,25,4,27,0.00
2013-3-20,37.7,25.1,14.9,16.9,11.7,6.1,77,58,38,30.45,30.15,22,6,26,0.00
2013-3-21,31.4,25.8,20.3,18.2,14.0,11.9,73,61,46,30.15,29.96,10,3,15,0.00
2013-3-22,33.5,30.1,25.5,22.2,19.3,16.9,74,64,54,30.07,30.00,7,2,8,0.00
2013-3-23,36.0,31.2,27.8,28.7,24.6,20.0,92,77,58,30.15,30.05,16,4,19,0.01
2013-3-24,28.7,25.9,24.3,25.9,21.9,19.6,92,85,73,30.14,30.08,25,10,27,0.02
2013-3-25,30.4,25.9,20.2,24.0,21.3,15.2,91,83,69,30.40,30.13,25,10,28,0.03
2013-3-26,41.7,27.9,15.3,27.2,19.3,11.4,92,71,50,30.44,30.28,7,1,8,0.00
2013-3-27,50.6,38.9,24.7,32.2,27.3,20.3,84,64,48,30.30,30.20,14,5,15,0.00
2013-3-28,57.7,43.2,27.7,35.4,31.2,24.6,91,65,41,30.27,30.15,8,1,9,0.00
2013-3-29,68.3,51.7,34.4,41.9,35.0,30.4,86,57,29,30.22,30.02,13,3,15,0.00
2013-3-30,68.0,55.2,46.3,55.7,45.0,35.1,98,71,40,30.06,29.87,18,4,22,0.34
2013-3-31,59.0,46.9,31.2,41.7,34.7,26.0,92,67,33,30.15,29.92,24,7,28,0.03
2013-4-1,40.5,30.2,20.3,29.0,20.3,16.5,92,68,44,30.36,30.15,17,5,20,0.00
2013-4-2,53.0,37.7,23.6,31.1,23.3,16.6,81,58,38,30.37,30.26,9,1,10,0.00
2013-4-3,56.8,41.2,29.5,32.1,26.2,21.8,75,57,37,30.36,30.22,11,2,13,0.00
2013-4-4,64.3,47.9,31.1,43.7,33.2,25.0,83,58,42,30.24,30.04,14,3,16,0.00
2013-4-5,68.5,52.0,33.8,43.3,35.5,28.9,83,56,33,30.16,29.69,14,3,18,0.00
2013-4-6,72.1,59.0,49.9,47.4,42.7,39.6,74,56,36,29.75,29.57,21,3,27,0.00
2013-4-7,73.0,56.1,44.1,51.7,44.3,37.4,92,66,36,29.82,29.60,18,2,21,0.23
2013-4-8,65.9,57.1,45.8,59.3,53.8,44.1,96,89,78,29.68,29.58,11,2,15,0.13
2013-4-9,62.2,45.8,33.2,59.2,43.9,31.7,95,93,87,29.96,29.54,26,8,33,0.40
2013-4-10,37.2,34.5,31.6,35.6,33.1,30.1,99,94,92,29.99,29.79,20,6,25,0.24
2013-4-11,35.3,31.6,28.8,33.1,29.3,27.1,95,91,86,29.83,29.68,14,4,16,0.09
2013-4-12,43.0,34.7,29.0,33.2,29.3,25.5,90,81,65,30.05,29.76,14,5,18,0.01
2013-4-13,53.1,40.9,27.2,39.9,32.9,23.6,89,74,58,30.06,29.66,22,4,22,0.00
2013-4-14,66.5,52.0,42.3,53.7,42.9,32.8,87,72,50,29.68,29.31,18,5,21,0.11
2013-4-15,45.5,39.2,33.7,33.1,29.7,24.3,80,69,59,30.11,29.65,15,4,16,0.00
2013-4-16,50.6,42.1,34.4,34.3,30.6,27.9,81,65,45,30.26,30.09,15,5,17,0.00
2013-4-17,46.0,40.8,36.0,40.7,37.0,33.5,95,87,63,30.17,29.69,23,7,26,0.63
2013-4-18,35.9,32.9,30.8,34.1,30.4,27.3,94,91,83,29.94,29.72,32,12,32,0.43
2013-4-19,49.0,36.3,27.0,30.7,25.4,21.6,84,66,45,30.13,29.90,24,7,28,0.01
2013-4-20,45.8,36.1,24.3,30.0,23.6,19.4,83,62,42,30.29,30.13,16,4,16,0.00
2013-4-21,67.5,53.7,42.7,49.5,40.0,29.8,93,61,41,30.17,29.96,17,4,20,0.27
2013-4-22,50.7,42.7,32.0,49.2,40.9,28.3,96,93,86,30.22,29.92,25,5,27,0.78
2013-4-23,40.0,32.5,26.7,30.1,25.5,21.6,92,76,63,30.29,30.18,26,10,27,0.00
2013-4-24,60.0,39.8,24.1,39.3,28.4,20.2,92,67,33,30.25,30.06,16,2,20,0.01
2013-4-25,70.3,50.7,31.5,40.8,35.0,27.9,88,59,31,30.27,30.01,14,2,15,0.00
2013-4-26,71.7,57.9,48.8,52.2,44.8,37.3,88,62,45,30.16,30.00,9,1,17,0.00
2013-4-27,69.5,54.2,42.7,53.8,47.3,40.8,95,79,52,30.19,29.92,7,1,9,0.00
2013-4-28,82.7,63.7,45.1,55.9,50.5,42.9,94,66,36,29.93,29.64,10,1,12,0.00
2013-4-29,85.1,68.1,54.2,59.7,53.4,46.7,86,62,32,29.72,29.44,18,2,18,0.00
2013-4-30,74.3,68.3,61.1,59.2,51.2,41.8,62,54,46,29.83,29.42,19,7,21,0.00
2013-5-1,61.1,40.9,32.0,43.7,36.0,30.3,95,84,47,30.44,29.83,29,12,34,0.33
2013-5-2,47.7,38.2,32.1,34.5,31.0,28.1,95,77,53,30.67,30.44,26,9,31,0.51
2013-5-3,45.9,39.0,29.5,33.6,30.1,25.6,92,71,57,30.50,30.05,23,8,25,0.00
2013-5-4,42.3,38.5,34.4,39.7,35.7,31.1,93,89,76,30.16,30.00,30,11,30,0.03
2013-5-5,55.0,46.7,40.4,49.5,43.5,38.5,94,89,80,30.19,30.10,13,5,15,0.00
2013-5-6,66.0,54.1,46.3,55.8,48.4,44.1,94,82,62,30.15,30.01,9,2,10,0.00
2013-5-7,73.3,60.7,45.0,56.7,52.5,42.7,94,76,52,30.06,29.91,8,1,9,0.05
2013-5-8,66.9,61.4,55.9,59.8,56.4,51.7,92,84,76,29.93,29.85,7,1,9,0.04
2013-5-9,68.8,59.0,55.3,60.8,56.1,52.2,96,90,72,29.96,29.82,21,5,21,1.00
2013-5-10,69.9,57.5,48.1,58.0,49.6,45.6,92,77,51,30.08,29.96,15,5,19,0.00
2013-5-11,60.7,53.8,45.0,47.9,35.3,25.8,83,51,33,30.24,30.01,30,9,31,0.00
2013-5-12,66.3,51.8,34.4,38.2,30.5,24.9,79,46,28,30.28,30.09,8,1,10,0.00
2013-5-13,83.8,66.2,46.2,55.6,46.5,30.9,78,51,30,30.10,29.79,10,3,13,0.00
2013-5-14,100.5,80.1,59.8,61.6,56.2,49.0,86,49,21,29.79,29.55,17,4,20,0.00
2013-5-15,82.8,74.0,64.2,51.2,45.5,41.5,52,37,27,29.84,29.69,12,3,15,0.00
2013-5-16,84.8,72.5,59.0,67.4,57.1,47.0,72,59,45,29.81,29.68,10,1,13,0.00
2013-5-17,85.8,74.5,62.5,66.6,61.4,58.1,87,65,45,29.83,29.74,6,1,10,0.00
2013-5-18,84.3,74.0,61.5,68.9,63.3,57.4,88,70,52,29.82,29.61,15,3,24,0.00
2013-5-19,75.9,65.2,58.0,70.3,61.2,54.7,95,87,71,29.73,29.44,14,1,16,0.63
2013-5-20,76.0,64.7,55.6,62.6,56.4,51.9,93,76,55,29.61,29.46,11,2,15,0.04
2013-5-21,63.3,57.8,52.6,56.2,50.8,47.7,88,78,64,29.70,29.55,9,3,14,0.00
2013-5-22,60.2,54.5,50.7,54.2,49.5,47.6,91,83,73,29.96,29.69,15,5,17,0.00
2013-5-23,71.8,59.7,50.8,53.7,48.0,44.2,92,68,39,30.20,29.96,16,4,19,0.00
2013-5-24,73.4,62.8,49.0,54.7,48.7,42.8,80,61,45,30.26,29.98,15,3,18,0.00
2013-5-25,79.0,68.0,57.5,69.1,60.4,47.9,95,78,57,30.07,29.89,14,4,19,0.01
2013-5-26,83.3,71.2,63.5,72.1,65.7,60.8,93,83,67,29.94,29.76,14,2,14,0.00
2013-5-27,76.5,67.2,59.4,66.4,62.2,57.4,95,84,69,29.86,29.51,23,2,25,0.19
2013-5-28,80.9,70.4,60.7,70.2,63.5,58.8,96,80,48,29.67,29.56,12,1,16,0.00
2013-5-29,74.1,67.8,62.1,70.4,64.2,60.1,94,88,76,29.66,29.47,16,3,17,0.38
2013-5-30,76.1,64.9,58.0,66.2,60.5,53.8,95,86,70,29.58,29.43,11,1,13,0.06
2013-5-31,78.0,67.5,57.2,61.1,54.2,48.5,88,64,43,29.67,29.56,8,2,12,0.00
2013-6-1,61.5,57.5,53.4,55.4,51.1,47.9,90,79,64,30.01,29.62,23,6,25,0.01
2013-6-2,68.1,57.9,49.4,53.7,47.1,44.6,88,69,47,30.11,29.98,19,3,22,0.00
2013-6-3,73.5,62.8,49.1,54.8,50.4,45.2,88,66,43,30.02,29.78,19,4,24,0.00
2013-6-4,72.7,65.4,58.8,65.2,59.7,54.7,90,82,71,29.95,29.81,16,2,17,0.01
2013-6-5,74.0,64.1,56.9,62.6,53.9,49.1,93,71,48,30.03,29.91,18,5,20,0.00
2013-6-6,73.5,63.0,55.1,59.0,52.4,49.0,87,69,50,29.97,29.91,14,4,17,0.00
2013-6-7,73.3,62.7,51.9,58.8,51.9,48.5,90,69,49,30.00,29.85,10,1,10,0.00
2013-6-8,68.8,61.9,57.0,63.2,56.8,50.5,95,84,70,29.85,29.61,11,2,17,0.26
2013-6-9,70.0,62.7,58.8,63.6,58.8,56.1,95,87,76,29.79,29.66,15,2,19,0.00
2013-6-10,77.8,66.6,55.1,66.5,60.7,53.1,94,82,60,29.86,29.72,10,1,14,0.00
2013-6-11,88.1,75.7,66.6,72.8,66.7,62.9,90,75,49,29.78,29.62,10,1,14,0.00
2013-6-12,87.7,76.7,61.6,75.4,65.8,53.2,85,70,54,29.96,29.58,25,6,29,0.00
2013-6-13,77.5,66.4,56.3,63.1,57.3,52.8,92,74,48,30.06,29.92,9,1,12,0.00
2013-6-14,89.4,73.1,63.5,75.1,65.1,58.1,93,77,61,29.99,29.68,17,3,24,0.73
2013-6-15,81.9,73.1,66.6,71.7,66.7,63.0,93,81,63,29.89,29.74,13,1,20,0.00
2013-6-16,85.4,74.7,65.7,70.8,64.9,59.3,96,74,45,29.93,29.87,8,1,10,0.02
2013-6-17,87.8,76.9,64.0,67.1,61.4,56.4,82,60,43,29.96,29.87,11,2,13,0.00
2013-6-18,82.7,73.0,65.1,63.5,57.9,52.4,81,60,39,30.01,29.90,7,0,9,0.00
2013-6-19,85.8,75.3,63.9,69.9,63.4,55.8,85,68,49,29.95,29.82,9,1,11,0.00
2013-6-20,89.1,79.5,68.2,74.8,69.6,63.2,87,73,60,29.89,29.72,14,1,14,0.00
2013-6-21,93.5,84.0,76.2,75.8,72.5,70.1,82,69,50,29.78,29.67,16,1,19,0.00
2013-6-22,90.6,80.2,70.0,73.9,68.1,60.4,82,67,53,29.92,29.69,28,3,32,0.02
2013-6-23,80.0,73.3,64.1,71.3,67.3,62.0,93,82,70,29.89,29.66,14,1,19,1.07
2013-6-24,75.4,73.4,72.6,71.4,70.3,69.6,93,90,87,29.82,29.77,5,0,7,0.01
2013-9-12,64.0,64.0,64.0,52.8,52.8,52.8,67,67,67,30.14,30.14,1,1,4,0.00
2013-9-13,74.2,68.8,57.7,56.1,53.2,50.8,78,58,47,30.18,30.03,5,0,7,0.00
2013-9-14,76.3,64.8,53.9,59.3,54.1,49.0,85,69,52,30.03,29.82,7,0,8,0.00
2013-9-15,68.3,64.5,62.1,65.0,58.7,53.7,95,82,69,30.20,29.80,16,2,19,0.09
2013-9-16,65.4,60.3,55.2,55.7,53.7,51.5,91,79,69,30.28,30.15,11,1,14,0.01
2013-9-17,72.3,63.3,56.7,68.9,61.2,54.9,96,93,85,30.16,29.83,8,1,10,0.01
2013-9-18,89.0,76.9,66.0,73.8,68.8,64.2,95,78,56,29.84,29.61,9,0,11,0.00
2013-9-19,80.9,70.5,58.1,70.1,62.4,51.5,93,76,61,29.95,29.63,17,2,20,0.13
2013-9-20,71.8,59.3,48.4,53.3,48.9,45.4,91,70,44,30.05,29.93,17,2,23,0.00
2013-9-21,76.5,60.6,44.3,56.3,49.8,42.1,94,70,46,30.00,29.82,7,1,9,0.00
2013-9-22,80.5,67.3,55.8,61.5,54.1,51.3,88,65,39,29.85,29.74,8,1,10,0.00
2013-9-23,75.8,65.3,54.1,57.5,52.8,49.7,86,65,47,29.78,29.66,15,3,22,0.00
2013-9-24,69.5,64.3,58.2,59.8,56.6,53.6,90,76,65,29.86,29.64,13,2,16,0.00
2013-9-25,78.5,65.6,51.6,63.5,57.7,49.9,95,78,55,29.87,29.69,9,1,15,0.09
2013-9-26,85.9,72.7,61.1,62.6,60.3,57.5,90,68,44,29.74,29.65,15,4,21,0.00
2013-9-27,87.4,76.4,69.4,65.6,61.5,58.8,75,61,44,29.76,29.66,11,2,17,0.01
2013-9-28,73.7,62.4,51.3,63.4,52.2,44.0,93,71,45,30.01,29.59,13,2,17,0.48
2013-9-29,77.5,60.8,46.9,52.9,46.3,41.8,83,61,36,30.02,29.84,5,0,8,0.00
2013-9-30,82.4,65.3,52.9,58.2,51.8,46.9,85,64,40,29.85,29.65,7,0,7,0.00
2013-10-1,77.8,66.6,56.9,55.8,52.4,47.9,85,62,42,29.90,29.71,10,1,13,0.00
2013-10-2,84.7,70.2,56.6,69.1,59.8,47.0,92,71,50,29.90,29.75,6,0,11,0.00
2013-10-3,81.3,68.3,60.1,69.6,62.2,57.9,95,82,63,29.82,29.64,16,1,24,1.24
2013-10-4,80.6,66.2,49.9,72.3,60.6,39.8,94,83,60,29.85,29.55,13,3,16,0.36
2013-10-5,53.0,45.9,40.8,41.3,36.3,34.5,87,70,56,29.91,29.79,13,2,14,0.00
2013-10-6,50.0,45.5,40.7,46.3,41.7,37.4,91,87,69,30.01,29.76,13,3,19,0.04
2013-10-7,75.4,56.6,40.4,48.8,42.9,37.3,89,64,35,30.08,29.96,6,1,8,0.01
2013-10-8,76.7,62.3,49.2,53.7,46.6,41.6,77,58,40,29.97,29.84,8,0,10,0.00
2013-10-9,77.0,63.9,52.5,56.5,50.8,46.5,81,64,45,29.95,29.86,13,1,17,0.00
2013-10-10,59.9,58.9,57.5,49.6,49.3,48.9,74,71,69,29.94,29.92,4,1,8,0.00